Location: B?dimalle
(17.1788°N, 80.5377°E)
Time: 07:20:13
(UTC+00:00)

ISS - Visible Passes

Search period start: 05 October 2024 00:00
Search period end: 15 October 2024 00:00
Orbit: 412 x 425 km, 51.6° (Epoch: 04 October)

Date Brightness Start Highest point End Pass type
(mag) Time Alt. Az. Time Alt. Az. Time Alt. Az.
05 Oct -3.2 13:26:41 10° NW 13:29:59 57° SW 13:32:16 18° SSE visible
06 Oct -3.7 12:38:56 10° NNW 12:42:14 58° NE 12:45:33 10° SE visible
07 Oct -0.5 13:29:28 10° W 13:30:50 12° SW 13:32:13 10° SSW visible
08 Oct -1.3 12:40:03 10° WNW 12:42:53 25° SW 12:45:43 10° S visible
11 Oct -0.5 23:36:29 10° SSE 23:37:56 12° SE 23:39:23 10° E visible
13 Oct -3.1 23:33:45 10° SSW 23:37:00 56° SE 23:40:15 10° NE visible
14 Oct -1.6 22:47:45 22° SE 22:48:10 23° SE 22:50:52 10° ENE visible
